Tracking 23752 objects as of 23-Oct-2021
HD Live streaming from Space Station
objects crossing your sky now

MOZHAYETS 4

Track MOZHAYETS 4 now!
10-day predictions
MOZHAYETS 4 is classified as:


NORAD ID: 27939
Int'l Code: 2003-042A
Perigee: 669.3 km
Apogee: 686.0 km
Inclination: 98.2 °
Period: 98.2 minutes
Semi major axis: 7048 km
RCS: 0.7646 m2 (medium)
Launch date: September 27, 2003
Source: Commonwealth of Independent States (former USSR) (CIS)
Launch site: PLESETSK MISSILE AND SPACE COMPLEX (PKMTR)
aabbcc
Your satellite tracking list
Your tracking list is empty




NASA's NSSDC Master Catalog

Two Line Element Set (TLE):
1 27939U 03042A   21296.06445339  .00000126  00000-0  31306-4 0  9999
2 27939  98.1597  72.4060 0011839 233.7669 126.2414 14.67042283966231
Source of the keplerian elements: Caltech